星链-35997(STARLINK-35997)

导读

STARLINK-35997是美国SpaceX星链计划中的低轨卫星,于2025年12月31日发射入轨。它属于星链卫星互联网星座的组成部分,主要用于为全球范围内用户提供高速宽带互联网接入服务,进一步扩充星链星座规模,提升星座服务覆盖能力与网络稳定性,助力全球互联网络覆盖延伸。

基本信息
目录编号:
66843
目录名称:
STARLINK-35997
国际标识:
2025-280Y
轨道中心:
EARTH
卫星名称:
星链-35997
卫星全名:
星链-35997(STARLINK-35997)
卫星状态:
在轨 (已飞行193 天)
发射日期:
2025-12-02 UTC
国别 :
美国 (US)
星等 :
--
轨道信息
数据来源 国际轨道数据 AOE轨道数据
星历时间 2026-06-13T04:44:29+0800
10小时前
查看轨道信息
2026-06-11T04:00:00+0800
2天前
查看轨道信息
半长轴 6950.177km 6950.198km
偏心率 0.0003061 0.0003287
轨道倾角 70.001° 70.000°
近地点辐角 267.627° 269.576°
升交点赤经 94.425° 99.544°
平近点角 92.454° 298.972°
近地点 569.912km 569.776km
远地点 574.168km 574.346km
周期 96.107分钟 96.107分钟
每日圈数 14.983352 14.983285
详细信息
固有亮度:
5
最大亮度:
2.5
卫星平台:
Starlink V1.0
覆盖范围:
全球
运营商:
太空探索技术公司
运营商所在国:
美国
制造商(研发单位):
太空探索技术公司
制造商所在国:
美国
使用方式:
暂无
卫星简介
Starlink 计划是 SpaceX 推出的全球卫星互联网项目,通过发射低轨道卫星,为全球尤其是偏远地区提供高速、低延迟的互联网服务。自 2019 年起,Starlink 已部署数千颗卫星,旨在缩小全球数字鸿沟,推动互联网普及。该项目还为军事、航空等行业提供通信支持,带来广泛经济效益。
2D轨道图
3D轨道图
轨道高度分析图
轨道倾角分析图
轨道综合分析图
查看轨道综合分析图